Location: Le Domaine
(47.0333°N, 76.5361°W)
Time: 00:57:11
(UTC-05:00)

Transit 2A Rocket - Pass Details

Date: 14 November 2019
Orbit: 594 x 909 km, 66.7° (Epoch: 07 December)

Event Time Altitude Azimuth Distance (km) Brightness Sun altitude
Exits shadow 06:21:06 - 333° (NNW) 2,706 7.4 -8.2°
Reaches altitude 10° 06:23:14 10° 344° (NNW) 1,939 6.8 -7.9°
Maximum altitude 06:26:58 28° 44° (NE) 1,155 6.3 -7.3°
Drops below altitude 10° 06:30:47 10° 104° (ESE) 1,984 9.0 -6.6°
Sets 06:33:22 0° 116° (ESE) 2,924 10.6 -6.2°
